Other Surface Observations
Issued by NWS Charleston, SC

Home | Current Version | Previous Version | Text Only | Print | Product List | Glossary On
Versions: 1 2 3 4 5 6 7 8 9 10 11 12 13 14 15 16 17 18 19 20 21 22 23 24 25 26 27 28 29 30 31 32 33 34 35 36 37 38 39 40 41 42 43 44 45 46 47 48 49 50
000
SXUS52 KCHS 032327
OSOCHS

MARINE OBSERVATIONS
NATIONAL WEATHER SERVICE CHARLESTON SC
700 PM EDT SUN MAY 03 2015

...DOWNTOWN CHARLESTON AND HARBOR...

CITY           SKY/WX    TMP DP  RH WIND       PRES   REMARKS
WATERFRONT PRK   N/A     72 N/A N/A SE10        N/A
FORT JOHNSON   NOT AVBL

...LAKE MOULTRIE...

CITY           SKY/WX    TMP DP  RH WIND       PRES   REMARKS
PINOPOLIS      NOT AVBL

...LAKE AND SUPPLEMENTAL COASTAL OBSERVATIONS...

STATION/POSITION TIME  TEMP    WIND        PRES    WAVE   SWELL
                       AIR SEA DIR/SP/G            HT/PER HT/PER/DIR
                 (UTC) (F)     (DEG/KT/KT) (MB)    (FT/S) (FT/S/D)
FORT PULASKI     2300          160/  4/  7   N/A
SAPELO ISLAND    2300   77     150/  6     1021.0S
UPR LAKE MARION  NOT AVBL
WINYAH BAY       2200   71     130/  9     1021.0
LAKE MURRAY      2300   81        CALM     1019.6S
ACE BASIN NERRS  NOT AVBL


...C-MAN AND BUOY OBSERVATIONS...

STATION/POSITION TIME  TEMP    WIND        PRES    WAVE   SWELL
                       AIR SEA DIR/SP/G            HT/PER HT/PER/DIR
                 (UTC) (F)     (DEG/KT/KT) (MB)    (FT/S) (FT/S/D)
BUOY 41004       2250   72 76  140/  6/  8 1021.7R   2/10   2/10
BUOY 41008       2250   73 75  180/  4/  4 1021.9S   3/12   3/ 80/12
FOLLY BEACH CMAN 2300   70     140/  7/  7 1021.7R
CAPERS NS BUOY   2208   71     160/  8/ 10 1021.6S
FRIPP NS BUOY    2200   73     190/ 10/ 10 1020.7F
5E ST. MARYS GA  2221      75                N/A     2/11   2/ 70/11


STATION/POSITION TIME  TEMP    WIND        PRES    WAVE   SWELL
                       AIR SEA DIR/SP/G            HT/PER HT/PER/DIR
                 (UTC) (F)     (DEG/KT/KT) (MB)    (FT/S) (FT/S/D)
FRYING PAN BUOY  2250   73 74  130/  4/  6 1023.1R   4/12   3/100/12
BUOY 41025       2250   67 61  220/  4/  6 1022.2R   5/ 9   5/ 60/ 9
CAPE LOOKOUT NC  2300   69     210/  6/  8 1021.9R
BUOY 41002       2250   69 70   30/ 14/ 16 1022.7R   9/11   8/ 20/11
BUOY 41010       2220   73 78   70/ 12/ 14 1021.4R
ST AUGUSTINE FL  2300   72 73   90/  7/  8 1022.3R

$$



USA.gov is the U.S. government's official web portal to all federal, state and local government web resources and services.